Погода в Кастелламмаре-дель-Гольфо

Италия     38°01′36″N   12°52′52″E
темп.,
°C
ветер,
м/с
пор.,
м/с
влажн.,
%
обл.,
%
осадки,
мм/ч
давл.,
гПа
погр.,
м
19 апреля, пн
пн1923:00+10ююз597678 0.7 1016666
02:00+8ююз51084100 1.9 1015560
05:00+10з6107857 1.0 1015723
08:00+10з267677 2.3 1016666
11:00+13сз356311 0.8 10171184
14:00+14сз68575 0.9 10171594
17:00+14зсз57565 0.0 10171500
20:00+11ююз22715 0.0 1018222
20 апреля, вт
вт2023:00+9ю33905 0.1 101978
02:00+8ю348918 0.1 101889
05:00+9ююз338317 0.0 1018102
08:00+11ю23770 0.0 1019152
11:00+15сз23545 0.0 1019907
14:00+15ссз435734 0.0 1019957
17:00+14с3263100 0.0 1018625
20:00+11св127368 0.0 1018155
21 апреля, ср
ср2123:00+10ююв2278100 0.0 101943
02:00+10ююв3373100 0.0 101977
05:00+10ююв33685 0.0 101867
08:00+12ююв236310 0.0 1018119
11:00+17ююв1356100 0.0 1018662
14:00+18юв0450100 0.0 10181118
17:00+17ююз1457100 0.0 1016564
20:00+14ю1174100 0.0 101719
22 апреля, чт
чт2223:00+14ююв5770100 0.0 1017142
02:00+14ююв5668100 0.2 101789
05:00+13юв3376100 0.8 101749
08:00+15с1178100 0.8 101745
11:00+18св1453100 0.1 1016692
14:00+19ссз2357100 0.1 1016894
17:00+19зсз2353100 0.0 1013230
20:00+15ююв1177100 0.1 101316
23 апреля, пт
пт2323:00+15зсз2275100 0.0 101429
02:00+14зсз2281100 0.0 101341
05:00+14зюз0181100 0.1 101217
08:00+14с3486100 0.1 1010224
11:00+16сз4378100 0.0 1012364
14:00+14с1187100 1.2 1012201
17:00+15ссз448293 0.3 1011441
20:00+13с349095 0.3 1012210